Taos, NM

2:53 AM MDT on October 24, 2017 (GMT -0600)
Taos Municipal

Weather History for KSKX - April, 2014

Change the Weather History Date:

Wednesday, April 16, 2014

  Actual Average Record
Temperature  
Mean Temperature 45 °F -  
Max Temperature 66 °F 58 °F 71 °F (2001)
Min Temperature 24 °F 25 °F 8 °F (1999)
Degree Days  
Heating Degree Days 20    
Moisture  
Dew Point 11 °F    
Average Humidity 28    
Maximum Humidity 87    
Minimum Humidity 11    
Precipitation  
Precipitation 0.00 in - - ()
Sea Level Pressure  
Sea Level Pressure 29.94 in    
Wind  
Wind Speed 8 mph (WNW)    
Max Wind Speed 21 mph    
Max Gust Speed 31 mph    
Visibility 10 miles    
Events      
Averages and records for this station are not official NWS values.
T = Trace of Precipitation, MM = Missing Value Source: NWS Daily Summary

Daily Weather History Graph

Daily Weather History Graph

Search for Another Location

Airport or City:

Trip Planner

Search our weather history database for the weather conditions in past years. The results will help you decide how hot, cold, wet, or windy it might be!

Date:

Astronomy

Apr. 16, 2014 Rise Set
Actual Time 6:27 AM MDT 7:37 PM MDT
Civil Twilight 6:01 AM MDT 8:04 PM MDT
Nautical Twilight 5:29 AM MDT 8:36 PM MDT
Astronomical Twilight 4:56 AM MDT 9:09 PM MDT
Moon 9:21 PM MDT (4/16) 7:18 AM MDT (4/16)
Length of Visible Light 14h 03m
Length of Day
13h 10m
Full, 98% of the Moon is Illuminated
Apr 16
Full
Apr 22
Last Quarter
Apr 29
New
May 6
First Quarter
May 14
Full

Hourly Weather History & Observations

Time (MDT) Temp. Windchill Dew Point Humidity Pressure Visibility Wind Dir Wind Speed Gust Speed Precip Events Conditions
12:15 AM 33.8 °F 27.0 °F 1.4 °F 25% 29.98 in 10.0 mi NW 8.1 mph - N/A   Clear
12:35 AM 32.0 °F 27.5 °F -0.4 °F 25% 29.97 in 10.0 mi North 4.6 mph - N/A   Clear
12:55 AM 30.2 °F 21.3 °F -0.4 °F 27% 29.97 in 10.0 mi NNE 10.4 mph - N/A   Clear
1:15 AM 28.4 °F 20.4 °F -0.4 °F 29% 29.97 in 10.0 mi NNE 8.1 mph - N/A   Clear
1:35 AM 28.4 °F 23.3 °F -0.4 °F 29% 29.96 in 10.0 mi North 4.6 mph - N/A   Clear
1:55 AM 26.6 °F 21.2 °F -2.2 °F 29% 29.96 in 10.0 mi NNW 4.6 mph - N/A   Clear
2:15 AM 28.4 °F 24.6 °F -0.4 °F 29% 29.95 in 10.0 mi North 3.5 mph - N/A   Clear
2:35 AM 26.6 °F - 1.4 °F 34% 29.94 in 10.0 mi Calm Calm - N/A   Clear
2:55 AM 28.4 °F 22.2 °F 3.2 °F 34% 29.93 in 10.0 mi North 5.8 mph - N/A   Clear
3:15 AM 33.8 °F 29.6 °F 1.4 °F 25% 29.93 in 10.0 mi NNW 4.6 mph - N/A   Clear
3:35 AM 35.6 °F - 1.4 °F 24% 29.92 in 10.0 mi Calm Calm - N/A   Clear
3:55 AM 33.8 °F 30.8 °F 3.2 °F 28% 29.92 in 10.0 mi North 3.5 mph - N/A   Clear
4:15 AM 26.6 °F 22.6 °F 1.4 °F 34% 29.93 in 10.0 mi North 3.5 mph - N/A   Clear
4:35 AM 26.6 °F 20.0 °F 3.2 °F 37% 29.93 in 10.0 mi NNE 5.8 mph - N/A   Clear
4:55 AM 28.4 °F 24.6 °F 5.0 °F 37% 29.92 in 10.0 mi North 3.5 mph - N/A   Clear
5:15 AM 26.6 °F 20.0 °F 3.2 °F 37% 29.93 in 10.0 mi North 5.8 mph - N/A   Clear
5:35 AM 30.2 °F - 6.8 °F 37% 29.93 in 10.0 mi Calm Calm - N/A   Clear
5:55 AM 33.8 °F - 6.8 °F 32% 29.94 in 10.0 mi Calm Calm - N/A   Clear
6:15 AM 28.4 °F 23.3 °F 6.8 °F 40% 29.94 in 10.0 mi NNE 4.6 mph - N/A   Clear
6:35 AM 28.4 °F 24.6 °F 8.6 °F 43% 29.94 in 10.0 mi NNE 3.5 mph - N/A   Clear
6:55 AM 24.8 °F 16.1 °F 6.8 °F 46% 29.95 in 10.0 mi East 8.1 mph - N/A   Clear
7:15 AM 30.2 °F 26.7 °F 12.2 °F 47% 29.95 in 10.0 mi East 3.5 mph - N/A   Clear
7:35 AM 35.6 °F - 12.2 °F 38% 29.96 in 10.0 mi Calm Calm - N/A   Clear
7:55 AM 35.6 °F - 10.4 °F 35% 29.97 in 10.0 mi Calm Calm - N/A   Clear
8:15 AM 39.2 °F - 12.2 °F 33% 29.97 in 10.0 mi Calm Calm - N/A   Clear
8:35 AM 41.0 °F - 12.2 °F 31% 29.97 in 10.0 mi Calm Calm - N/A   Clear
8:55 AM 44.6 °F - 12.2 °F 27% 29.97 in 10.0 mi Calm Calm - N/A   Clear
9:35 AM - - - N/A% 29.96 in - West 8.1 mph - N/A   Unknown
9:55 AM 51.8 °F - 10.4 °F 19% 29.96 in 10.0 mi SW 5.8 mph - N/A   Clear
10:15 AM 53.6 °F - 10.4 °F 18% 29.95 in 10.0 mi WSW 10.4 mph - N/A   Clear
10:35 AM 55.4 °F - 10.4 °F 17% 29.95 in 10.0 mi WSW 10.4 mph - N/A   Clear
10:55 AM 57.2 °F - 8.6 °F 14% 29.95 in 10.0 mi WSW 9.2 mph - N/A   Clear
11:15 AM 57.2 °F - 8.6 °F 14% 29.94 in 10.0 mi SW 11.5 mph 19.6 mph N/A   Clear
11:35 AM 60.8 °F - 10.4 °F 14% 29.94 in 10.0 mi WSW 15.0 mph 20.7 mph N/A   Clear
11:55 AM 60.8 °F - 10.4 °F 14% 29.93 in 10.0 mi WSW 18.4 mph - N/A   Clear
12:15 PM 60.8 °F - 10.4 °F 14% 29.92 in 10.0 mi SW 13.8 mph 19.6 mph N/A   Clear
12:35 PM 60.8 °F - 10.4 °F 14% 29.91 in 10.0 mi SW 16.1 mph 19.6 mph N/A   Clear
12:55 PM 62.6 °F - 10.4 °F 13% 29.91 in 10.0 mi WNW 11.5 mph 21.9 mph N/A   Clear
1:15 PM 62.6 °F - 10.4 °F 13% 29.90 in 10.0 mi West 16.1 mph 25.3 mph N/A   Clear
1:35 PM 62.6 °F - 10.4 °F 13% 29.90 in 10.0 mi WSW 11.5 mph 24.2 mph N/A   Clear
1:55 PM 64.4 °F - 12.2 °F 13% 29.88 in 10.0 mi WSW 16.1 mph 21.9 mph N/A   Scattered Clouds
2:15 PM 66.2 °F - 12.2 °F 12% 29.88 in 10.0 mi WNW 17.3 mph 31.1 mph N/A   Partly Cloudy
2:35 PM 66.2 °F - 12.2 °F 12% 29.87 in 10.0 mi SW 16.1 mph 23.0 mph N/A   Clear
2:55 PM 66.2 °F - 10.4 °F 11% 29.87 in 10.0 mi WSW 17.3 mph 26.5 mph N/A   Scattered Clouds
3:15 PM 64.4 °F - 10.4 °F 12% 29.86 in 10.0 mi WSW 13.8 mph 23.0 mph N/A   Mostly Cloudy
3:35 PM 62.6 °F - 8.6 °F 12% 29.86 in 10.0 mi SW 18.4 mph 24.2 mph N/A   Overcast
3:55 PM 62.6 °F - 8.6 °F 12% 29.85 in 10.0 mi West 12.7 mph 18.4 mph N/A   Overcast
4:15 PM 60.8 °F - 8.6 °F 13% 29.86 in 10.0 mi West 12.7 mph 25.3 mph N/A   Overcast
4:35 PM 60.8 °F - 8.6 °F 13% 29.86 in 10.0 mi West 18.4 mph 21.9 mph N/A   Overcast
4:55 PM 60.8 °F - 10.4 °F 14% 29.87 in 10.0 mi West 18.4 mph 23.0 mph N/A   Overcast
5:15 PM 59.0 °F - 10.4 °F 15% 29.88 in 10.0 mi WNW 17.3 mph - N/A   Overcast
5:55 PM 57.2 °F - 12.2 °F 17% 29.90 in 10.0 mi WNW 16.1 mph - N/A   Overcast
6:15 PM 57.2 °F - 12.2 °F 17% 29.91 in 10.0 mi West 20.7 mph 25.3 mph N/A   Overcast
6:35 PM 55.4 °F - 14.0 °F 20% 29.92 in 10.0 mi West 15.0 mph - N/A   Overcast
6:55 PM 55.4 °F - 15.8 °F 21% 29.92 in 10.0 mi WNW 16.1 mph 21.9 mph N/A   Overcast
7:15 PM 53.6 °F - 15.8 °F 22% 29.93 in 10.0 mi WNW 13.8 mph - N/A   Mostly Cloudy
7:35 PM 53.6 °F - 15.8 °F 22% 29.94 in 10.0 mi WNW 10.4 mph - N/A   Mostly Cloudy
7:55 PM 51.8 °F - 15.8 °F 24% 29.95 in 10.0 mi WNW 11.5 mph - N/A   Mostly Cloudy
8:15 PM 51.8 °F - 15.8 °F 24% 29.96 in 10.0 mi NW 13.8 mph - N/A   Overcast
8:35 PM 51.8 °F - 17.6 °F 26% 29.98 in 10.0 mi WNW 11.5 mph - N/A   Overcast
8:55 PM 50.0 °F - 17.6 °F 28% 30.00 in 10.0 mi NW 11.5 mph - N/A   Overcast
9:15 PM 50.0 °F - 17.6 °F 28% 30.02 in 10.0 mi WNW 4.6 mph - N/A   Overcast
9:35 PM 50.0 °F - 19.4 °F 30% 30.02 in 10.0 mi NW 3.5 mph - N/A   Overcast
9:55 PM 48.2 °F - 24.8 °F 40% 30.03 in 10.0 mi South 5.8 mph - N/A   Overcast
10:15 PM 48.2 °F - 23.0 °F 37% 30.03 in 10.0 mi SE 11.5 mph - N/A   Overcast
10:35 PM 46.4 °F 40.7 °F 26.6 °F 46% 30.05 in 10.0 mi ESE 12.7 mph - N/A   Overcast
10:55 PM 42.8 °F 34.8 °F 32.0 °F 66% 30.06 in 9.0 mi ESE 17.3 mph 24.2 mph N/A   Overcast
11:15 PM 39.2 °F 30.2 °F 33.8 °F 81% 30.07 in 10.0 mi ESE 17.3 mph - N/A   Mostly Cloudy
11:35 PM 39.2 °F 30.5 °F 33.8 °F 81% 30.08 in 10.0 mi East 16.1 mph - N/A   Overcast
11:55 PM 37.4 °F 28.2 °F 33.8 °F 87% 30.08 in 10.0 mi ESE 16.1 mph - N/A   Overcast